Starlink 32466

operational
NORAD ID: 61859 Int'l Des: 2024-202 Owner: SPXS Country: US Constellation: starlink
LEOCIRCULAR

About Starlink 32466

Description loading...

Live Position

Loading 3D Globe...

Upcoming Passes

Altitude History

Altitude vs Time

uPlot chart will show altitude changes over time

Two-Line Element Set

1 61859U 24202Q 25304.85326507 -.00000103 00000-0 57970-5 0 9997
2 61859 43.0028 245.6045 0001841 294.3383 65.7276 15.27566591 55639
Epoch: Oct 31, 2025 • Age: 4 hours

Current Status

Altitude 493.9 km
Velocity 7.62 km/s
Sub-Earth Point -38.91°S, 73.08°E
Launch Date Nov 7, 2024
Age 0.9 years
Type internet

Technical Details

Classification Payload
Mass 730.00 kg
Dry Mass 700.00 kg
Total Mass 730.00 kg
Length 0.30 m
Diameter 4.10 m
Span 29.00 m
Shape Box + pan
Manufacturer SPXS
Bus Type Starlink V2M
Phase Status In Orbit
Owner/State SPXS/US

Large Constellations

Loading constellations...